sat.trackr.live / text

‹ back to catalog

ONEWEB-0180

NORAD 48213 · 2021-031D

PAYLOAD ACTIVE UNKNOWN

§ Identity

Operator
Country
UK
Launch date
2021-04-25
Launch site
VOSTO
Launch vehicle
Mass (kg)
RCS (m²)

Purposes: comms

External: N2YO · Heavens-Above · Gunter

§ Orbital elements

Epoch: 2026-05-25T04:01:23.018592Z

Period
109.55 min
Inclination
87.8946°
Eccentricity
0.0001591
Mean motion
13.14501085 rev/d
Perigee alt
1,204.6 km
Apogee alt
1,207.0 km
Semi-major
7,583.9 km
B*
5.8207e-4
RAAN
294.2860°
Arg perigee
111.6314°
Mean anomaly
248.4985°
Rev number
24,519

§ Raw data

ONEWEB-01801 48213U 21031D   26145.16762753  .00000229  00000+0  58207-3 0  99972 48213  87.8946 294.2860 0001591 111.6314 248.4985 13.14501085245195

JSON: /api/v1/satellites/48213 · /tle

For live sub-satellite position, see the globe view (requires WebGL).

§ Visibility from observer

Set your observer location to see the next 7 days of passes ≥ 10°. The values pass through the URL so the page stays shareable.

No JS? Fill the form by hand. The geolocation button needs JavaScript.